This demonstration page uses our WeatherBlox Daily Observations layout. Learn more.

Left ArrowRight Arrow

Hourly Observations for July 8, 2020

Temp ( °F °C ) Dew Point ( °F °C ) Humidity (%) Winds ( mph kmh ) Pressure ( in mb ) Visibility ( mi km ) Precip ( " mm )
12:53 am 00:53 Clear 78 25.6 65 18.3 64 64 SSE 8 13 29.83 1010 10 16 0.00 0.00
1:53 am 01:53 Clear 76 24.4 65 18.3 69 69 SSE 9 15 29.81 1010 10 16 0.00 0.00
2:53 am 02:53 Clear 75 23.9 65 18.3 71 71 SSE 7 11 29.82 1010 10 16 0.00 0.00
3:53 am 03:53 Clear 74 23.3 64 17.8 71 71 S 7 11 29.82 1010 10 16 0.00 0.00
4:53 am 04:53 Clear 73 22.8 64 17.8 74 74 SSW 6 9 29.82 1010 10 16 0.00 0.00
5:53 am 05:53 Clear 71 21.7 64 17.8 79 79 S 6 9 29.83 1010 10 16 0.00 0.00
6:53 am 06:53 Sunny 72 22.2 64 17.8 76 76 S 9 15 29.82 1010 10 16 0.00 0.00
7:53 am 07:53 Sunny 76 24.4 65 18.3 69 69 S 10 17 29.82 1010 10 16 0.00 0.00
8:53 am 08:53 Sunny 79 26.1 66 18.9 65 65 SSW 13 20 29.82 1010 10 16 0.00 0.00
9:53 am 09:53 Sunny 84 28.9 67 19.4 57 57 S 12 19 29.80 1009 10 16 0.00 0.00
10:53 am 10:53 Sunny 85 29.4 66 18.9 53 53 S 12 19 29.80 1009 10 16 0.00 0.00
11:53 am 11:53 Sunny 90 32.2 66 18.9 45 45 S 15 24 29.79 1009 10 16 0.00 0.00
12:53 pm 12:53 Sunny 91 32.8 67 19.4 45 45 SSE 16 26 29.79 1009 10 16 0.00 0.00
1:53 pm 13:53 Sunny 92 33.3 67 19.4 44 44 S 15 24 29.77 1008 10 16 0.00 0.00
2:53 pm 14:53 Sunny 93 33.9 66 18.9 41 41 S 16 26 29.75 1007 10 16 0.00 0.00
3:53 pm 15:53 Sunny 93 33.9 66 18.9 41 41 SSE 17 28 29.74 1007 10 16 0.00 0.00
4:53 pm 16:53 Sunny 93 33.9 67 19.4 42 42 S 14 22 29.74 1007 10 16 0.00 0.00
5:53 pm 17:53 Sunny 91 32.8 67 19.4 45 45 SSE 13 20 29.73 1007 10 16 0.00 0.00
6:53 pm 18:53 Sunny 90 32.2 68 20 48 48 SSE 18 30 29.73 1007 10 16 0.00 0.00
7:53 pm 19:53 Sunny 88 31.1 67 19.4 50 50 SSE 13 20 29.71 1006 10 16 0.00 0.00
8:53 pm 20:53 Sunny 85 29.4 67 19.4 55 55 SSE 13 20 29.69 1005 10 16 0.00 0.00
9:53 pm 21:53 Clear 83 28.3 67 19.4 59 59 SSE 10 17 29.69 1005 10 16 0.00 0.00
10:53 pm 22:53 Clear 81 27.2 67 19.4 62 62 SE 12 19 29.70 1006 10 16 0.00 0.00
11:35 pm 23:35 Mostly Cloudy with Nearby Thunderstorms 77 25 58 14.4 52 52 W 25 41 29.74 1007 9 14 0.00 0.00
11:41 pm 23:41 Mostly Cloudy with Nearby Thunderstorms 77 25 60 15.6 56 56 WNW 37 59 29.78 1009 6 10 0.00 0.00
11:48 pm 23:48 Very Windy with Storms Likely 72 22 63 17 73 73 N 47 76 29.83 1010 2 3 0.09 2.29
11:49 pm 23:49 Cloudy with Thunderstorms 70 21 63 17 78 78 N 45 72 29.84 1010 2 3 0.12 3.05
11:53 pm 23:53 Cloudy with Strong Thunderstorms 65 18.3 61 16.1 87 87 NNW 41 67 29.89 1012 1 2 0.16 4.06

Powered by AerisWeather